Regional Weather Roundup
Issued by NWS

Home | Current Version | Previous Version | Text Only | Print | Product List | Glossary Off
Versions: 1 2 3 4 5 6 7 8 9 10 11 12 13 14 15 16 17 18 19 20 21 22 23 24 25 26 27 28 29 30 31 32 33 34 35 36 37 38 39 40 41 42 43 44 45 46 47 48 49 50

000
ASUS43 KMPX 201810
RWRMN
WEATHER ROUNDUP FOR MINNESOTA
NATIONAL WEATHER SERVICE TWIN CITIES/CHANHASSEN MN
100 PM CDT SUN AUG 20 2017


NOTE: "FAIR" INDICATES FEW OR NO CLOUDS BELOW 12,000 FEET WITH NO
SIGNIFICANT WEATHER AND/OR OBSTRUCTIONS TO VISIBILITY. N/A MEANS
CURRENT SKY AND/OR WEATHER CONDITIONS ARE NOT AVAILABLE.

MNZ060>063-068>070-201900-
   Twin Cities Metro

CITY           SKY/WX    TMP DP  RH WIND       PRES   REMARKS
TWIN CITIES    PTSUNNY   83  68  60 W10       29.93F
6HR MIN TEMP:  66; 6HR MAX TEMP:  83;

ST PAUL        SUNNY     81  69  67 W7        29.93S
CRYSTAL        PTSUNNY   81  66  60 W7        29.93R
BLAINE         PTSUNNY   82  68  61 W9        29.94R
LAKEVILLE      SUNNY     79  70  73 SW6       29.94S
EDEN PRAIRIE   PTSUNNY   81  68  64 W9        29.93S
6HR MIN TEMP:  69; 6HR MAX TEMP:  83;

SOUTH ST PAUL  SUNNY     82  67  59 W7        29.93S
LAKE ELMO      FAIR      81  70  69 W9        29.94S
$$
MNZ001>005-007-008-013>017-022>024-027-028-201900-
   Northwest Minnesota

CITY           SKY/WX    TMP DP  RH WIND       PRES   REMARKS
BEMIDJI        CLOUDY    72  55  56 NW16      29.96R
HALLOCK        SUNNY     75  41  29 N13       29.96S
ROSEAU         SUNNY     75  52  43 NW10G20   29.94R
WARROAD        SUNNY     73  54  49 W15G21    29.93S
THIEF RVR FALL SUNNY     74  45  35 NW13G22   29.98S
CROOKSTON      SUNNY     75  45  33 NW15      29.97F
FOSSTON        MOSUNNY   72  50  46 NW9       29.98S
DETROIT LAKES  CLOUDY    68  55  64 N12       29.98F
MOORHEAD       CLOUDY    72  52  49 N12G18    29.98F
PARK RAPIDS    PTSUNNY   73  56  54 N13       29.96S
MAHNOMEN       FAIR      69  54  57 NW10      29.98R
$$
MNZ006-009>011-018-025>026-201900-
   North Central Minnesota

CITY           SKY/WX    TMP DP  RH WIND       PRES   REMARKS
BAUDETTE       SUNNY     75  53  46 NW15      29.92R
FLAG ISLAND    HAZE      73  46  38 W9        29.90R VSB 3/4
INTL FALLS     MOSUNNY   71  52  50 W15G25    29.89R
6HR MIN TEMP:  62; 6HR MAX TEMP:  74;

WASKISH        PTSUNNY   73  55  53 W10       29.93S
BIG FORK       CLOUDY    73  54  49 W7        29.92R
LONGVILLE      CLOUDY    70  57  64 NW5       29.95S
GRAND RAPIDS   CLOUDY    70  58  65 W8        29.95R
CRANE LAKE     PTSUNNY   72  61  68 NW8       29.88S
ORR            MOSUNNY   73  54  49 W9        29.87R
COOK           MOSUNNY   73  61  64 W8G16     29.90R
WALKER         FAIR      69  56  62 NW8       29.96R
$$
MNZ012-019>021-037-201900-
   Northeast Minnesota

CITY           SKY/WX    TMP DP  RH WIND       PRES   REMARKS
DULUTH         PTSUNNY   75  65  70 W14G21    29.91R
6HR MIN TEMP:  61; 6HR MAX TEMP:  75;

ELY            MOSUNNY   72  61  68 W14       29.87S
HIBBING        CLOUDY    72  61  68 NW12      29.91R
EVELETH        PTSUNNY   73  59  61 W9G16     29.91R
DULUTH HARBOR  PTSUNNY   77  66  69 W8        29.89R
TWO HARBORS    MOSUNNY   79  70  73 NW5       29.87R
SILVER BAY     PTSUNNY   75  64  69 CALM      29.85
GRAND MARAIS     N/A     69  64  84 S7        29.82F
G MARAIS ARPRT CLOUDY    72  61  68 SW6       29.86F
$$
MNZ029>031-032-039>041-046>048-054>057-064-201900-
   West Central Minnesota

CITY           SKY/WX    TMP DP  RH WIND       PRES   REMARKS
FERGUS FALLS   CLOUDY    70  57  64 CALM      29.98R
WHEATON        CLOUDY    66  54  63 NW8       30.02R
MORRIS         CLOUDY    66  57  72 CALM      29.99R
ELBOW LAKE     FAIR      66  58  75 NW3       30.00R
WADENA         CLOUDY    70  57  64 N9        29.95F
GLENWOOD       MOSUNNY   72  61  68 N8        29.99R
APPLETON       CLOUDY    68  57  68 NW9       30.00R
BENSON         CLOUDY    70  61  73 N9        30.00R
ORTONVILLE     CLOUDY    66  54  63 MISG      30.00S
MADISON        PTSUNNY   72  61  68 NW10      30.01R
WILLMAR        FAIR      75  66  73 N7        29.98R
$$
MNZ033>034-036-042>043-049>051-058-059-201900-
   Central Minnesota

CITY           SKY/WX    TMP DP  RH WIND       PRES   REMARKS
ST CLOUD       PTSUNNY   76  65  68 N7        29.95R
6HR MIN TEMP:  61; 6HR MAX TEMP:  78;

SAUK CENTRE    FAIR      71  62  73 N6        29.98S
PAYNESVILLE    CLOUDY    74  64  70 N6        29.97S
AITKIN         CLOUDY    73  63  68 NW5       29.94R
PINE RIVER     CLOUDY    68  55  64 N6        29.99R
BRAINERD       CLOUDY    72  59  63 NW6       29.95S
STAPLES        CLOUDY    68  57  68 N6        29.96S
LONG PRAIRIE   FAIR      68  61  77 CALM      29.98R
LITTLE FALLS   CLOUDY    72  61  68 NW6       29.97R
LITCHFIELD     CLOUDY    79  70  73 N8        29.96S
BUFFALO        MOSUNNY   78  65  62 N3        29.95F
MAPLE LAKE     SUNNY     79  69  72 NW5       29.95F
HUTCHINSON     SUNNY     79  69  73 NW6       29.96S
$$
MNZ037-044-045-052-053-201900-
   East Central Minnesota

CITY           SKY/WX    TMP DP  RH WIND       PRES   REMARKS
PRINCETON      MOSUNNY   81  66  61 NW8       29.95R
MORA           SUNNY     77  61  57 NW7       29.95F
CAMBRIDGE      SUNNY     81  66  61 W9        29.94R
RUSH CITY      MOSUNNY   78  68  70 W3        29.94R HAZE
MOOSE LAKE     PTSUNNY   75  63  64 NW5       29.92R
HINCKLEY       FAIR      77  68  73 W9        29.94R
CLOQUET        MOSUNNY   75  61  60 NW16      29.92R
MCGREGOR       MOSUNNY   75  61  60 NW9       29.94R
$$
MNZ071>073-080-081-089-090-097-098-201900-
   Southwest Minnesota

CITY           SKY/WX    TMP DP  RH WIND       PRES   REMARKS
MONTEVIDEO     CLOUDY    73  64  73 N7        29.99S
GRANITE FALLS  CLOUDY    73  63  72 NW9       30.00R
CANBY          CLOUDY    70  60  68 CALM      30.02S
MARSHALL       CLOUDY    71  63  75 N12       29.99S
REDWOOD FALLS  CLOUDY    77  65  66 N6        29.96R
OLIVIA         CLOUDY    77  68  73 N7        29.96R
PIPESTONE      CLOUDY    79  64  61 NE7       30.00S
WINDOM         SUNNY     81  66  61 NW6       29.98S
WORTHINGTON    CLOUDY    79  68  69 NE5       29.99S HAZE
JACKSON        SUNNY     77  66  69 CALM      29.99S
TRACY          PTSUNNY   75  68  80 N7        29.99S
SLAYTON        MOSUNNY   75  62  64 N5        30.01S
$$
MNZ065>067-074>077-082>085-091>093-201900-
   South Central Minnesota

CITY           SKY/WX    TMP DP  RH WIND       PRES   REMARKS
MANKATO        MOSUNNY   79  69  71 S6        29.95F
NEW ULM        MOSUNNY   79  66  65 W9        29.96R
ST JAMES       SUNNY     81  66  61 W3        29.97S
FAIRMONT       SUNNY     79  67  66 MISG      29.97S
GLENCOE        MOSUNNY   79  71  77 CALM      29.94F
FARIBAULT      SUNNY     81  68  65 SW8       29.96S
OWATONNA       SUNNY     81  68  65 SW10      29.96F
WASECA         SUNNY     79  68  69 SW9       29.97F
ALBERT LEA     SUNNY     82  66  57 SW9       29.96F
$$
MNZ078>079-086>088-094>096-201900-
   Southeast Minnesota

CITY           SKY/WX    TMP DP  RH WIND       PRES   REMARKS
ROCHESTER      SUNNY     78  67  68 SW16      29.98F
6HR MIN TEMP:  63; 6HR MAX TEMP:  78;

RED WING       SUNNY     84  61  45 W15       29.92F
STANTON        SUNNY     82  67  60 SW12      29.93F
DODGE CENTER   SUNNY     79  64  61 SW15      29.97F
WINONA         SUNNY     81  63  54 W7        29.96F
AUSTIN         SUNNY     81  64  57 SW10      29.97F
PRESTON        SUNNY     78  63  58 SW15G22   30.00R
$$
ABBREVIATIONS USED IN REMARKS
   TC - TEMPERATURES IN CELSIUS
  WCI - WIND CHILL INDEX
   HX - HEAT INDEX
  VSB - VISIBILITY
$$




USA.gov is the U.S. government's official web portal to all federal, state and local government web resources and services.